TimeMDT,TemperatureF,Dew PointF,Humidity,Sea Level PressureIn,VisibilityMPH,Wind Direction,Wind SpeedMPH,Gust SpeedMPH,PrecipitationIn,Events,Conditions,WindDirDegrees,DateUTC
12:53 AM,73.9,35.1,24,29.76,10.0,West,8.1,-,N/A,,Clear,270,2013-07-28 06:53:00
1:53 AM,69.1,37.0,31,29.76,10.0,Calm,Calm,-,N/A,,Clear,0,2013-07-28 07:53:00
2:53 AM,66.0,39.0,37,29.77,10.0,SSE,4.6,-,N/A,,Clear,150,2013-07-28 08:53:00
3:53 AM,66.0,37.0,34,29.78,10.0,West,4.6,-,N/A,,Clear,260,2013-07-28 09:53:00
4:53 AM,66.0,34.0,30,29.78,10.0,SSW,3.5,-,N/A,,Clear,200,2013-07-28 10:53:00
5:53 AM,62.1,33.1,34,29.80,10.0,Calm,Calm,-,N/A,,Clear,0,2013-07-28 11:53:00
6:53 AM,60.1,35.1,39,29.80,10.0,SE,6.9,-,N/A,,Clear,140,2013-07-28 12:53:00
7:53 AM,66.0,34.0,30,29.82,10.0,SSE,5.8,-,N/A,,Clear,150,2013-07-28 13:53:00
8:53 AM,68.0,33.1,27,29.84,10.0,Calm,Calm,-,N/A,,Clear,0,2013-07-28 14:53:00
11:53 AM,80.1,34.0,19,29.81,10.0,WNW,6.9,-,N/A,,Clear,290,2013-07-28 17:53:00
12:53 PM,84.0,30.0,14,29.80,10.0,NNW,8.1,-,N/A,,Clear,330,2013-07-28 18:53:00
1:14 PM,84.2,28.4,13,29.89,10.0,NW,4.6,-,N/A,,Partly Cloudy,310,2013-07-28 19:14:00
1:53 PM,86.0,23.0,10,29.78,10.0,Variable,4.6,-,N/A,,Clear,0,2013-07-28 19:53:00
2:53 PM,89.1,24.1,9,29.77,10.0,NW,12.7,-,N/A,,Clear,310,2013-07-28 20:53:00
3:53 PM,90.0,24.1,9,29.74,10.0,NW,9.2,-,N/A,,Clear,320,2013-07-28 21:53:00
4:53 PM,91.0,28.0,10,29.72,10.0,North,9.2,18.4,N/A,,Clear,350,2013-07-28 22:53:00
5:53 PM,91.0,28.0,10,29.70,10.0,North,10.4,18.4,N/A,,Clear,350,2013-07-28 23:53:00
6:53 PM,91.0,28.0,10,29.69,10.0,NNW,13.8,-,N/A,,Clear,330,2013-07-29 00:53:00
7:53 PM,89.1,28.0,11,29.68,8.0,NNW,9.2,-,N/A,,Clear,340,2013-07-29 01:53:00
8:53 PM,84.9,28.0,13,29.68,8.0,North,3.5,-,N/A,,Clear,360,2013-07-29 02:53:00
9:53 PM,82.9,30.0,15,29.68,8.0,North,3.5,-,N/A,,Clear,10,2013-07-29 03:53:00